When you browse on this site, cookies collect data to enhance your experience and personalize the content and advertising you see.
Visit our Privacy Policy to learn more. By continuing to use the site, you agree to this use of cookies and data.
  • In Spain
  • List of Countries
  • For 7 days
  • Water Temperature
  • Satellite Maps
  • Weather Map
  • Weather Widgets
  • user-avatar
    Login

    Hourly Weather Ties

    Today, 17 February, Sunday

    Time Temperature Precipitation Wind Pressure Humidity
    00:00 +21°C° 0 mm 7 mps 751 mmHg 65%
    01:00 +21°C° 0 mm 7 mps 751 mmHg 67%
    02:00 +21°C° 0 mm 7 mps 750 mmHg 68%
    03:00 +20°C° 0 mm 7 mps 750 mmHg 70%
    04:00 +20°C° 0 mm 7 mps 750 mmHg 71%
    05:00 +20°C° 0 mm 7 mps 750 mmHg 72%
    06:00 +21°C° 0 mm 7 mps 750 mmHg 69%
    07:00 +21°C° 0 mm 6 mps 751 mmHg 66%
    08:00 +22°C° 0 mm 6 mps 751 mmHg 64%
    09:00 +24°C° 0 mm 6 mps 752 mmHg 52%
    10:00 +28°C° 0 mm 5 mps 752 mmHg 39%
    11:00 +30°C° 0 mm 5 mps 752 mmHg 27%
    12:00 +32°C° 0 mm 5 mps 751 mmHg 23%
    13:00 +34°C° 0 mm 5 mps 751 mmHg 20%
    14:00 +35°C° 0 mm 5 mps 750 mmHg 17%
    15:00 +33°C° 0 mm 5 mps 750 mmHg 22%
    16:00 +30°C° 0 mm 6 mps 749 mmHg 28%
    17:00 +28°C° 0 mm 7 mps 749 mmHg 34%
    18:00 +26°C° 0 mm 7 mps 749 mmHg 41%
    19:00 +24°C° 0 mm 6 mps 750 mmHg 48%
    20:00 +22°C° 0 mm 6 mps 750 mmHg 55%
    21:00 +22°C° 0 mm 6 mps 750 mmHg 57%
    22:00 +21°C° 0 mm 6 mps 751 mmHg 60%
    23:00 +21°C° 0 mm 6 mps 751 mmHg 63%

    Tomorrow, 18 February, Monday

    Time Temperature Precipitation Wind Pressure Humidity
    00:00 +21°C° 0 mm 6 mps 751 mmHg 65%
    01:00 +20°C° 0 mm 6 mps 750 mmHg 68%
    02:00 +20°C° 0 mm 6 mps 750 mmHg 70%
    03:00 +20°C° 0 mm 6 mps 750 mmHg 72%
    04:00 +20°C° 0 mm 6 mps 750 mmHg 74%
    05:00 +19°C° 0 mm 6 mps 749 mmHg 75%
    06:00 +20°C° 0 mm 6 mps 750 mmHg 73%
    07:00 +21°C° 0 mm 6 mps 750 mmHg 71%
    08:00 +21°C° 0 mm 6 mps 751 mmHg 68%
    09:00 +25°C° 0 mm 5 mps 751 mmHg 57%
    10:00 +27°C° 0 mm 5 mps 751 mmHg 45%
    11:00 +30°C° 0 mm 5 mps 751 mmHg 34%
    12:00 +32°C° 0 mm 5 mps 750 mmHg 31%
    13:00 +33°C° 0 mm 5 mps 750 mmHg 29%
    14:00 +33°C° 0 mm 5 mps 749 mmHg 26%
    15:00 +32°C° 0 mm 5 mps 749 mmHg 29%
    16:00 +29°C° 0 mm 5 mps 748 mmHg 32%
    17:00 +28°C° 0 mm 6 mps 748 mmHg 35%
    18:00 +26°C° 0 mm 5 mps 749 mmHg 38%
    19:00 +25°C° 0 mm 5 mps 749 mmHg 41%
    20:00 +22°C° 0 mm 5 mps 750 mmHg 45%
    21:00 +22°C° 0 mm 5 mps 750 mmHg 46%
    22:00 +22°C° 0 mm 5 mps 750 mmHg 47%
    23:00 +21°C° 0 mm 4 mps 750 mmHg 49%

    Day after tomorrow, 19 February, Tuesday

    Time Temperature Precipitation Wind Pressure Humidity
    00:00 +21°C° 0 mm 4 mps 750 mmHg 52%
    01:00 +21°C° 0 mm 4 mps 749 mmHg 55%
    02:00 +21°C° 0 mm 4 mps 749 mmHg 58%
    03:00 +20°C° 0 mm 4 mps 749 mmHg 60%
    04:00 +20°C° 0 mm 4 mps 749 mmHg 63%
    05:00 +20°C° 0 mm 5 mps 749 mmHg 66%
    06:00 +21°C° 0 mm 5 mps 749 mmHg 65%
    07:00 +21°C° 0 mm 5 mps 749 mmHg 64%
    08:00 +22°C° 0 mm 5 mps 750 mmHg 63%
    09:00 +23°C° 0 mm 5 mps 750 mmHg 54%
    10:00 +26°C° 0 mm 5 mps 750 mmHg 44%
    11:00 +28°C° 0 mm 4 mps 750 mmHg 35%
    12:00 +29°C° 0 mm 4 mps 749 mmHg 31%
    13:00 +30°C° 0 mm 4 mps 749 mmHg 27%
    14:00 +32°C° 0 mm 4 mps 748 mmHg 23%
    15:00 +30°C° 0 mm 4 mps 748 mmHg 24%
    16:00 +29°C° 0 mm 4 mps 747 mmHg 26%
    17:00 +28°C° 0 mm 4 mps 747 mmHg 27%
    18:00 +27°C° 0 mm 4 mps 748 mmHg 31%
    19:00 +25°C° 0 mm 4 mps 748 mmHg 35%
    20:00 +22°C° 0 mm 3 mps 749 mmHg 39%
    21:00 +22°C° 0 mm 3 mps 749 mmHg 40%
    22:00 +22°C° 0 mm 4 mps 749 mmHg 42%
    23:00 +21°C° 0 mm 4 mps 749 mmHg 44%

    20 February, Wednesday

    Time Temperature Precipitation Wind Pressure Humidity
    00:00 +21°C° 0 mm 4 mps 749 mmHg 46%
    01:00 +20°C° 0 mm 4 mps 749 mmHg 49%
    02:00 +20°C° 0 mm 4 mps 748 mmHg 52%
    03:00 +20°C° 0 mm 4 mps 748 mmHg 56%
    04:00 +19°C° 0 mm 4 mps 748 mmHg 60%
    05:00 +19°C° 0 mm 4 mps 748 mmHg 64%
    06:00 +20°C° 0 mm 4 mps 748 mmHg 64%
    07:00 +20°C° 0 mm 4 mps 749 mmHg 65%
    08:00 +21°C° 0 mm 5 mps 749 mmHg 65%
    09:00 +25°C° 0 mm 4 mps 750 mmHg 52%
    10:00 +28°C° 0 mm 4 mps 750 mmHg 40%
    11:00 +30°C° 0 mm 4 mps 750 mmHg 27%
    12:00 +32°C° 0 mm 4 mps 749 mmHg 26%
    13:00 +33°C° 0 mm 4 mps 749 mmHg 24%
    14:00 +34°C° 0 mm 4 mps 748 mmHg 23%
    15:00 +33°C° 0 mm 4 mps 748 mmHg 26%
    16:00 +30°C° 0 mm 5 mps 748 mmHg 30%
    17:00 +29°C° 0 mm 5 mps 748 mmHg 33%
    18:00 +27°C° 0 mm 5 mps 748 mmHg 38%
    19:00 +25°C° 0 mm 4 mps 749 mmHg 43%
    20:00 +22°C° 0 mm 3 mps 750 mmHg 47%
    21:00 +22°C° 0 mm 3 mps 750 mmHg 47%
    22:00 +21°C° 0 mm 3 mps 750 mmHg 46%
    23:00 +21°C° 0 mm 3 mps 750 mmHg 45%

    21 February, Thursday

    Time Temperature Precipitation Wind Pressure Humidity
    00:00 +21°C° 0 mm 3 mps 750 mmHg 46%
    01:00 +21°C° 0 mm 3 mps 749 mmHg 46%
    02:00 +20°C° 0 mm 3 mps 749 mmHg 47%
    03:00 +20°C° 0 mm 3 mps 749 mmHg 49%
    04:00 +20°C° 0 mm 3 mps 749 mmHg 52%
    05:00 +20°C° 0 mm 4 mps 749 mmHg 54%
    06:00 +21°C° 0 mm 4 mps 749 mmHg 53%
    07:00 +22°C° 0 mm 4 mps 750 mmHg 52%
    08:00 +23°C° 0 mm 5 mps 751 mmHg 52%
    09:00 +26°C° 0 mm 5 mps 751 mmHg 42%
    10:00 +29°C° 0 mm 5 mps 751 mmHg 33%
    11:00 +32°C° 0 mm 5 mps 751 mmHg 23%
    12:00 +33°C° 0 mm 5 mps 750 mmHg 22%
    13:00 +34°C° 0 mm 4 mps 750 mmHg 20%
    14:00 +35°C° 0 mm 4 mps 749 mmHg 18%
    15:00 +34°C° 0 mm 5 mps 749 mmHg 21%
    16:00 +33°C° 0 mm 5 mps 749 mmHg 23%
    17:00 +30°C° 0 mm 5 mps 749 mmHg 26%
    18:00 +28°C° 0 mm 5 mps 750 mmHg 31%
    19:00 +26°C° 0 mm 4 mps 750 mmHg 36%
    20:00 +23°C° 0 mm 4 mps 751 mmHg 41%
    21:00 +23°C° 0 mm 4 mps 751 mmHg 42%
    22:00 +22°C° 0 mm 4 mps 751 mmHg 43%
    23:00 +22°C° 0 mm 4 mps 751 mmHg 44%

    22 February, Friday

    Time Temperature Precipitation Wind Pressure Humidity
    00:00 +22°C° 0 mm 4 mps 751 mmHg 44%
    01:00 +22°C° 0 mm 4 mps 750 mmHg 45%
    02:00 +21°C° 0 mm 4 mps 750 mmHg 45%
    03:00 +21°C° 0 mm 4 mps 750 mmHg 46%
    04:00 +21°C° 0 mm 5 mps 750 mmHg 47%
    05:00 +21°C° 0 mm 5 mps 750 mmHg 48%
    06:00 +22°C° 0 mm 5 mps 751 mmHg 46%
    07:00 +23°C° 0 mm 5 mps 751 mmHg 45%
    08:00 +24°C° 0 mm 6 mps 752 mmHg 43%
    09:00 +27°C° 0 mm 5 mps 752 mmHg 36%
    10:00 +30°C° 0 mm 5 mps 752 mmHg 28%
    11:00 +34°C° 0 mm 5 mps 752 mmHg 20%
    12:00 +35°C° 0 mm 4 mps 751 mmHg 19%
    13:00 +36°C° 0 mm 4 mps 750 mmHg 18%
    14:00 +37°C° 0 mm 4 mps 749 mmHg 16%
    15:00 +35°C° 0 mm 5 mps 749 mmHg 21%
    16:00 +34°C° 0 mm 6 mps 749 mmHg 25%
    17:00 +32°C° 0 mm 6 mps 749 mmHg 30%
    18:00 +29°C° 0 mm 6 mps 750 mmHg 34%
    19:00 +27°C° 0 mm 6 mps 750 mmHg 38%
    20:00 +25°C° 0 mm 5 mps 750 mmHg 41%
    21:00 +25°C° 0 mm 5 mps 750 mmHg 41%
    22:00 +25°C° 0 mm 5 mps 750 mmHg 41%
    23:00 +25°C° 0 mm 5 mps 751 mmHg 41%
    Show more